カタログに戻る

FLOCK 4BE 23

運用中科学SSO
NORAD 60490·PAYLOAD·🇺🇸 United States

打ち上げ Aug 16, 2024 から Vandenberg Space Force Base

Loading…

次のパス (今後24時間)

TLE

最新Source: CelesTrak SupGP

元期: Sep 14, 2026, 16:45 UTC

1 60490C 24149BE  26257.69804398  .00030414  00000+0  76266-3 0  2576
2 60490  97.3731 340.6458 0002085 325.4760 289.1991 15.40053562    14

AllMySatでFLOCK 4BE 23をリアルタイム追跡

Download on the App Store